Location: Karlsruhe
(49.0039°N, 8.3960°E)
Time: 14:18:39
(UTC+01:00)

ISS - Visible Passes

Search period start: 08 December 2025 00:00
Search period end: 18 December 2025 00:00
Orbit: 416 x 421 km, 51.6° (Epoch: 07 December)

Date Brightness Start Highest point End Pass type
(mag) Time Alt. Az. Time Alt. Az. Time Alt. Az.
11 Dec -0.4 07:14:30 10° SSE 07:16:14 13° SE 07:17:58 10° ESE visible
13 Dec -1.6 07:13:50 10° SSW 07:16:49 29° SE 07:19:47 10° E visible
14 Dec -1.0 06:26:29 10° S 06:29:00 20° SE 06:31:32 10° E visible
15 Dec -0.7 05:39:35 10° SSE 05:41:14 13° SE 05:42:52 10° ESE visible
15 Dec -3.2 07:14:08 10° SW 07:17:28 61° SSE 07:20:49 10° ENE visible
16 Dec -2.6 06:26:49 13° SW 06:29:31 41° SSE 06:32:44 10° ENE visible
17 Dec -2.0 05:41:26 28° SSE 05:41:36 28° SE 05:44:33 10° E visible
17 Dec -3.8 07:14:48 10° WSW 07:18:11 77° NNW 07:21:34 10° ENE visible
